• In Hungary
  • List of Countries
  • For 7 days
  • Water Temperature
  • Satellite Maps
  • Weather Map
  • News
  • Weather Widgets
  • user-avatar
    Login

    Hourly Weather Leonovskiy

    Today, 20 July, Friday

    Time Temperature Precipitation Wind Pressure Humidity
    00:00 +20°C° 0.1 mm 1 mps 729 mmHg 88%
    01:00 +19°C° 0.1 mm 1 mps 729 mmHg 88%
    02:00 +19°C° 0.1 mm 1 mps 729 mmHg 89%
    03:00 +19°C° 0.1 mm 1 mps 729 mmHg 89%
    04:00 +18°C° 0.1 mm 1 mps 729 mmHg 89%
    05:00 +20°C° 0 mm 1 mps 730 mmHg 87%
    06:00 +21°C° 0 mm 1 mps 730 mmHg 85%
    07:00 +22°C° 0 mm 1 mps 730 mmHg 83%
    08:00 +24°C° 0.3 mm 1 mps 730 mmHg 79%
    09:00 +25°C° 0.3 mm 1 mps 730 mmHg 74%
    10:00 +27°C° 0.3 mm 1 mps 730 mmHg 70%
    11:00 +27°C° 0.6 mm 1 mps 730 mmHg 66%
    12:00 +28°C° 0.6 mm 1 mps 730 mmHg 62%
    13:00 +29°C° 0.6 mm 1 mps 730 mmHg 58%
    14:00 +29°C° 0.9 mm 1 mps 730 mmHg 60%
    15:00 +28°C° 0.9 mm 1 mps 730 mmHg 63%
    16:00 +28°C° 0.9 mm 1 mps 730 mmHg 66%
    17:00 +27°C° 0.5 mm 2 mps 730 mmHg 72%
    18:00 +26°C° 0.5 mm 2 mps 730 mmHg 78%
    19:00 +25°C° 0.5 mm 2 mps 730 mmHg 84%
    20:00 +23°C° 0 mm 2 mps 730 mmHg 86%
    21:00 +21°C° 0 mm 2 mps 730 mmHg 88%
    22:00 +19°C° 0 mm 2 mps 730 mmHg 90%
    23:00 +19°C° 0 mm 3 mps 730 mmHg 91%

    Tomorrow, 21 July, Saturday

    Time Temperature Precipitation Wind Pressure Humidity
    00:00 +19°C° 0 mm 3 mps 730 mmHg 92%
    01:00 +18°C° 0 mm 3 mps 730 mmHg 93%
    02:00 +18°C° 0 mm 3 mps 730 mmHg 93%
    03:00 +18°C° 0 mm 3 mps 730 mmHg 94%
    04:00 +18°C° 0 mm 3 mps 730 mmHg 94%
    05:00 +18°C° 0 mm 4 mps 730 mmHg 92%
    06:00 +19°C° 0 mm 5 mps 730 mmHg 90%
    07:00 +20°C° 0 mm 5 mps 731 mmHg 88%
    08:00 +21°C° 0 mm 5 mps 731 mmHg 83%
    09:00 +22°C° 0 mm 5 mps 731 mmHg 78%
    10:00 +23°C° 0 mm 5 mps 731 mmHg 72%
    11:00 +25°C° 0.1 mm 5 mps 731 mmHg 69%
    12:00 +25°C° 0.1 mm 5 mps 731 mmHg 66%
    13:00 +26°C° 0.1 mm 5 mps 731 mmHg 63%
    14:00 +26°C° 0 mm 6 mps 731 mmHg 64%
    15:00 +26°C° 0 mm 6 mps 731 mmHg 64%
    16:00 +26°C° 0 mm 6 mps 731 mmHg 65%
    17:00 +25°C° 0 mm 5 mps 731 mmHg 68%
    18:00 +23°C° 0 mm 5 mps 731 mmHg 72%
    19:00 +22°C° 0 mm 4 mps 731 mmHg 75%
    20:00 +21°C° 0 mm 4 mps 732 mmHg 75%
    21:00 +20°C° 0 mm 4 mps 732 mmHg 76%
    22:00 +19°C° 0 mm 5 mps 732 mmHg 76%
    23:00 +17°C° 0 mm 5 mps 732 mmHg 75%

    Day after tomorrow, 22 July, Sunday

    Time Temperature Precipitation Wind Pressure Humidity
    00:00 +17°C° 0 mm 5 mps 731 mmHg 75%
    01:00 +17°C° 0 mm 5 mps 731 mmHg 74%
    02:00 +17°C° 0 mm 5 mps 731 mmHg 75%
    03:00 +16°C° 0 mm 5 mps 732 mmHg 77%
    04:00 +16°C° 0 mm 5 mps 732 mmHg 78%
    05:00 +16°C° 0 mm 6 mps 732 mmHg 77%
    06:00 +17°C° 0 mm 6 mps 732 mmHg 76%
    07:00 +17°C° 0 mm 6 mps 732 mmHg 75%
    08:00 +18°C° 0 mm 7 mps 732 mmHg 70%
    09:00 +20°C° 0 mm 7 mps 732 mmHg 66%
    10:00 +21°C° 0 mm 7 mps 732 mmHg 61%
    11:00 +22°C° 0 mm 7 mps 732 mmHg 59%
    12:00 +22°C° 0 mm 7 mps 733 mmHg 56%
    13:00 +23°C° 0 mm 6 mps 733 mmHg 53%
    14:00 +23°C° 0 mm 6 mps 733 mmHg 53%
    15:00 +23°C° 0 mm 6 mps 733 mmHg 53%
    16:00 +23°C° 0 mm 6 mps 732 mmHg 52%
    17:00 +22°C° 0 mm 5 mps 733 mmHg 57%
    18:00 +20°C° 0 mm 4 mps 733 mmHg 61%
    19:00 +19°C° 0 mm 4 mps 733 mmHg 66%
    20:00 +18°C° 0 mm 4 mps 733 mmHg 66%
    21:00 +15°C° 0 mm 4 mps 733 mmHg 67%
    22:00 +14°C° 0 mm 4 mps 734 mmHg 68%
    23:00 +14°C° 0 mm 4 mps 734 mmHg 68%

    23 July, Monday

    Time Temperature Precipitation Wind Pressure Humidity
    00:00 +13°C° 0 mm 4 mps 734 mmHg 68%
    01:00 +12°C° 0 mm 4 mps 734 mmHg 69%
    02:00 +12°C° 0 mm 4 mps 734 mmHg 70%
    03:00 +11°C° 0 mm 4 mps 734 mmHg 72%
    04:00 +10°C° 0 mm 3 mps 734 mmHg 74%
    05:00 +12°C° 0 mm 4 mps 734 mmHg 72%
    06:00 +13°C° 0 mm 4 mps 735 mmHg 70%
    07:00 +14°C° 0 mm 5 mps 735 mmHg 69%
    08:00 +15°C° 0 mm 5 mps 735 mmHg 64%
    09:00 +16°C° 0 mm 5 mps 735 mmHg 60%
    10:00 +19°C° 0 mm 5 mps 735 mmHg 55%
    11:00 +20°C° 0 mm 5 mps 735 mmHg 53%
    12:00 +21°C° 0 mm 4 mps 735 mmHg 51%
    13:00 +22°C° 0 mm 4 mps 735 mmHg 49%
    14:00 +22°C° 0 mm 4 mps 735 mmHg 49%
    15:00 +22°C° 0 mm 4 mps 735 mmHg 48%
    16:00 +24°C° 0 mm 3 mps 735 mmHg 48%
    17:00 +22°C° 0 mm 3 mps 735 mmHg 54%
    18:00 +20°C° 0 mm 3 mps 735 mmHg 60%
    19:00 +19°C° 0 mm 3 mps 735 mmHg 66%
    20:00 +17°C° 0 mm 3 mps 735 mmHg 70%
    21:00 +16°C° 0 mm 2 mps 735 mmHg 74%
    22:00 +14°C° 0 mm 2 mps 735 mmHg 77%
    23:00 +13°C° 0 mm 2 mps 736 mmHg 80%

    24 July, Tuesday

    Time Temperature Precipitation Wind Pressure Humidity
    00:00 +12°C° 0 mm 2 mps 736 mmHg 83%
    01:00 +12°C° 0 mm 2 mps 736 mmHg 85%
    02:00 +10°C° 0 mm 2 mps 736 mmHg 86%
    03:00 +10°C° 0 mm 2 mps 736 mmHg 87%
    04:00 +10°C° 0 mm 2 mps 736 mmHg 88%
    05:00 +12°C° 0 mm 2 mps 736 mmHg 84%
    06:00 +14°C° 0 mm 2 mps 737 mmHg 79%
    07:00 +15°C° 0 mm 2 mps 737 mmHg 74%
    08:00 +17°C° 0 mm 2 mps 737 mmHg 68%
    09:00 +19°C° 0 mm 2 mps 737 mmHg 61%
    10:00 +21°C° 0 mm 3 mps 737 mmHg 54%
    11:00 +24°C° 0 mm 2 mps 737 mmHg 52%
    12:00 +25°C° 0 mm 2 mps 737 mmHg 50%
    13:00 +26°C° 0 mm 2 mps 737 mmHg 48%
    14:00 +26°C° 0 mm 2 mps 737 mmHg 48%
    15:00 +27°C° 0 mm 2 mps 737 mmHg 49%
    16:00 +27°C° 0 mm 2 mps 737 mmHg 49%
    17:00 +26°C° 0 mm 2 mps 737 mmHg 57%
    18:00 +25°C° 0 mm 2 mps 737 mmHg 64%
    19:00 +24°C° 0 mm 1 mps 737 mmHg 72%
    20:00 +22°C° 0 mm 1 mps 737 mmHg 77%
    21:00 +19°C° 0 mm 2 mps 737 mmHg 82%
    22:00 +18°C° 0 mm 2 mps 737 mmHg 86%
    23:00 +17°C° 0 mm 2 mps 737 mmHg 87%

    25 July, Wednesday

    Time Temperature Precipitation Wind Pressure Humidity
    00:00 +17°C° 0 mm 2 mps 738 mmHg 88%
    01:00 +16°C° 0 mm 1 mps 738 mmHg 89%
    02:00 +16°C° 0 mm 1 mps 738 mmHg 90%
    03:00 +16°C° 0 mm 1 mps 738 mmHg 90%
    04:00 +15°C° 0 mm 1 mps 738 mmHg 90%
    05:00 +18°C° 0 mm 1 mps 738 mmHg 86%
    06:00 +19°C° 0 mm 1 mps 739 mmHg 81%
    07:00 +21°C° 0 mm 1 mps 739 mmHg 77%
    08:00 +22°C° 0 mm 1 mps 739 mmHg 70%
    09:00 +24°C° 0 mm 1 mps 739 mmHg 63%
    10:00 +26°C° 0 mm 1 mps 739 mmHg 57%
    11:00 +26°C° 0 mm 2 mps 739 mmHg 55%
    12:00 +27°C° 0 mm 2 mps 739 mmHg 54%
    13:00 +28°C° 0 mm 2 mps 739 mmHg 52%
    14:00 +27°C° 0 mm 2 mps 739 mmHg 53%
    15:00 +27°C° 0 mm 3 mps 739 mmHg 54%
    16:00 +27°C° 0 mm 3 mps 739 mmHg 55%
    17:00 +26°C° 0 mm 2 mps 738 mmHg 61%
    18:00 +25°C° 0 mm 2 mps 738 mmHg 67%
    19:00 +24°C° 0 mm 2 mps 738 mmHg 73%
    20:00 +23°C° 0 mm 2 mps 738 mmHg 76%
    21:00 +20°C° 0 mm 2 mps 738 mmHg 80%
    22:00 +20°C° 0 mm 1 mps 738 mmHg 83%
    23:00 +19°C° 0 mm 1 mps 738 mmHg 84%
    Show more